Retour au catalogue

STARLINK-32361

ActifCommunicationsVLEO
NORAD 61933·PAYLOAD·🇺🇸 United States

Lancé Nov 11, 2024 depuis Cape Canaveral Space Force Station

Loading…

Prochains Passages (prochaines 24 heures)

TLE

FraisSource: CelesTrak SupGP

Époque: Sep 15, 2026, 02:51 UTC

1 61933C 24207X   26258.11923611  .00012770  00000+0  46255-3 0  2583
2 61933  43.0029 292.2672 0001435 268.2392 280.4124 15.27571938    17

Suivez STARLINK-32361 en temps réel avec AllMySat

Download on the App Store